Regional Weather Roundup
Issued by NWS Glasgow, MT

Home | Current Version | Previous Version | Text Only | Print | Product List | Glossary On
Versions: 1 2 3 4 5 6 7 8 9 10 11 12 13 14 15 16 17 18 19 20 21 22 23 24 25 26 27
000
ASUS45 KGGW 301915
RWRGGW
HOURLY REGIONAL WEATHER ROUNDUP FOR NORTHEAST MONTANA
NATIONAL WEATHER SERVICE GLASGOW MONTANA
100 PM MDT SAT APR 30 2016

NOTE: "FAIR" INDICATES FEW OR NO CLOUDS BELOW 12,000 FEET WITH NO
SIGNIFICANT WEATHER AND/OR OBSTRUCTIONS TO VISISBILITY.

NORTHEAST MONTANA


CITY           SKY/WX    TMP DP  RH WIND       PRES   REMARKS
GLASGOW        SUNNY     59  29  31 E13G24    30.25S
PLENTYWOOD       N/A     59  25  27 E13G22      N/A
WOLF POINT     SUNNY     62  31  31 E10       30.25F
JORDAN           N/A     59  33  37 E7        30.22R
WINNETT          N/A     51  35  54 NE3         N/A
SIDNEY         MOSUNNY   61  30  31 E18G24    30.24F
GLENDIVE       MOSUNNY   57  34  41 NE14G22   30.24F
SCOBEY           N/A     61  27  27 E13G22    30.24F
OPHEIM           N/A     54  25  32 CALM      30.16F

FORT PECK REPORTS


CITY           SKY/WX    TMP DP  RH WIND       PRES   REMARKS
FORT PECK        N/A     59  35  40 E12G20      N/A
THE PINES        N/A     57  30  35 NE10        N/A

SOUTHEAST MONTANA


CITY           SKY/WX    TMP DP  RH WIND       PRES   REMARKS
BILLINGS       CLOUDY    50  35  56 E12       30.20R
MILES CITY     CLOUDY    57  31  37 E13       30.19S
BAKER          CLOUDY    53  31  42 E20       30.20R
LIVINGSTON     CLOUDY    42  35  76 E16       30.18R

CENTRAL MONTANA


CITY           SKY/WX    TMP DP  RH WIND       PRES   REMARKS
HAVRE          CLOUDY    56  40  55 NE8       30.25S
LEWISTOWN      CLOUDY    48  33  56 SE6       30.23R
GREAT FALLS    CLOUDY    52  36  54 NE8       30.21S
CUT BANK       CLOUDY    50  35  56 E8        30.25S
HELENA         CLOUDY    52  33  48 N5        30.17S
BUTTE          CLOUDY    43  33  68 CALM      30.16S
BOZEMAN        CLOUDY    49  33  54 CALM      30.16R

WESTERN MONTANA


CITY           SKY/WX    TMP DP  RH WIND       PRES   REMARKS
MISSOULA       CLOUDY    50  41  71 W5        30.23R
KALISPELL      NOT AVBL

NORTH DAKOTA


CITY           SKY/WX    TMP DP  RH WIND       PRES   REMARKS
WILLISTON      SUNNY     61  27  27 E18G24    30.26S
DICKINSON      CLOUDY    53  30  41 NE16      30.19R
MINOT          MOSUNNY   64  27  24 NE12G25   30.24F
BISMARCK       SUNNY     59  31  34 NE25      30.19F

SOUTHERN SASKATCHEWAN


CITY           SKY/WX    TMP DP  RH WIND       PRES   REMARKS
REGINA         MOSUNNY   63  23  22 E12G21    30.30F
ESTEVAN        MOSUNNY   61  27  27 E14G22    30.28F
SWIFT CURRENT  MOSUNNY   61  27  27 SE14G21   30.27S





USA.gov is the U.S. government's official web portal to all federal, state and local government web resources and services.